This demonstration page uses our WeatherBlox Daily Observations layout. Learn more.

Hourly Observations for October 28, 2015

Temp ( °F °C ) Dew Point ( °F °C ) Humidity (%) Winds ( mph kmh ) Pressure ( in mb ) Visibility ( mi km ) Precip ( " mm )
12:15 am 00:15 Cloudy 48 9 43 6 82 82 N 21 33 29.88 1012 10 16.09344 0 0
12:35 am 00:35 Partly Cloudy 48 9 43 6 82 82 N 14 22 29.85 1011 10 16.09344 0 0
12:55 am 00:55 Clear 46 8 43 6 87 87 N 13 20 29.85 1011 10 16.09344 0 0
1:15 am 01:15 Partly Cloudy 46 8 41 5 82 82 N 13 20 29.85 1011 10 16.09344 0 0
1:35 am 01:35 Clear 46 8 41 5 82 82 NNW 14 22 29.91 1013 10 16.09344 0 0
1:55 am 01:55 Clear 46 8 41 5 82 82 NNW 15 24 29.91 1013 10 16.09344 0 0
2:15 am 02:15 Clear 46 8 41 5 82 82 NNW 15 24 29.91 1013 10 16.09344 0 0
2:35 am 02:35 Clear 46 8 41 5 82 82 NNW 12 19 29.91 1013 10 16.09344 0 0
2:55 am 02:55 Clear 45 7 41 5 87 87 NNW 9 15 29.91 1013 10 16.09344 0 0
3:15 am 03:15 Clear 45 7 41 5 87 87 WNW 9 15 29.94 1014 10 16.09344 0 0
3:35 am 03:35 Clear 45 7 41 5 87 87 NW 9 15 29.91 1013 10 16.09344 0 0
3:55 am 03:55 Mostly Cloudy 45 7 41 5 87 87 WNW 9 15 29.94 1014 10 16.09344 0 0
4:15 am 04:15 Cloudy 46 8 41 5 82 82 NW 14 22 29.94 1014 10 16.09344 0 0
4:35 am 04:35 Partly Cloudy 45 7 41 5 87 87 NW 9 15 29.91 1013 10 16.09344 0 0
4:55 am 04:55 Mostly Cloudy 45 7 41 5 87 87 NW 7 11 29.91 1013 10 16.09344 0 0
5:15 am 05:15 Partly Cloudy 45 7 41 5 87 87 WNW 6 9 29.91 1013 10 16.09344 0 0
5:35 am 05:35 Partly Cloudy 43 6 39 4 87 87 WNW 8 13 29.91 1013 10 16.09344 0 0
5:55 am 05:55 Clear 45 7 41 5 87 87 NNW 10 17 29.91 1013 10 16.09344 0 0
6:15 am 06:15 Clear 43 6 39 4 87 87 NNW 12 19 29.91 1013 10 16.09344 0 0
6:35 am 06:35 Clear 43 6 37 3 81 81 NNW 9 15 29.91 1013 10 16.09344 0 0
6:55 am 06:55 Clear 41 5 37 3 87 87 NW 9 15 29.91 1013 10 16.09344 0 0
7:15 am 07:15 Clear 41 5 36 2 81 81 NW 10 17 29.91 1013 10 16.09344 0 0
7:35 am 07:35 Clear 39 4 34 1 81 81 NW 12 19 29.94 1014 10 16.09344 0 0
7:55 am 07:55 Clear 39 4 34 1 81 81 NW 12 19 29.94 1014 10 16.09344 0 0
8:15 am 08:15 Sunny 39 4 34 1 81 81 NW 12 19 29.94 1014 10 16.09344 0 0
8:35 am 08:35 Sunny 39 4 34 1 81 81 NW 10 17 29.94 1014 10 16.09344 0 0
8:55 am 08:55 Sunny 39 4 34 1 81 81 NW 10 17 29.97 1015 10 16.09344 0 0
9:15 am 09:15 Sunny 41 5 34 1 76 76 NW 15 24 29.97 1015 10 16.09344 0 0
9:35 am 09:35 Sunny 41 5 34 1 76 76 NNW 14 22 29.97 1015 10 16.09344 0 0
9:55 am 09:55 Sunny 43 6 34 1 71 71 NNW 13 20 29.94 1014 10 16.09344 0 0
10:15 am 10:15 Mostly Cloudy 45 7 34 1 66 66 NNW 12 19 29.94 1014 10 16.09344 0 0
10:35 am 10:35 Cloudy 45 7 32 0 61 61 NNW 13 20 29.94 1014 10 16.09344 0 0
10:55 am 10:55 Cloudy 45 7 34 1 66 66 NNW 12 19 29.94 1014 10 16.09344 0 0
11:15 am 11:15 Cloudy 45 7 32 0 61 61 WNW 12 19 29.91 1013 10 16.09344 0 0
11:35 am 11:35 Mostly Cloudy 46 8 32 0 57 57 WNW 7 11 29.91 1013 10 16.09344 0 0
11:55 am 11:55 Partly Cloudy 48 9 34 1 58 58 WNW 12 19 29.88 1012 10 16.09344 0 0
12:15 pm 12:15 Sunny 50 10 36 2 58 58 W 8 13 29.88 1012 10 16.09344 0 0
12:35 pm 12:35 Sunny 52 11 34 1 50 50 WNW 10 17 29.85 1011 10 16.09344 0 0
12:55 pm 12:55 Sunny 54 12 36 2 51 51 W 12 19 29.8 1009 10 16.09344 0 0
1:15 pm 13:15 Sunny 54 12 34 1 47 47 WNW 12 19 29.8 1009 10 16.09344 0 0
1:35 pm 13:35 Mostly Cloudy 55 13 36 2 47 47 W 17 28 29.8 1009 10 16.09344 0 0
1:55 pm 13:55 Mostly Cloudy 54 12 34 1 47 47 W 14 22 29.77 1008 10 16.09344 0 0
2:15 pm 14:15 Partly Cloudy 57 14 34 1 41 41 WNW 15 24 29.74 1007 10 16.09344 0 0
2:35 pm 14:35 Mostly Cloudy 57 14 32 0 39 39 WNW 16 26 29.74 1007 10 16.09344 0 0
2:55 pm 14:55 Mostly Cloudy 57 14 32 0 39 39 WNW 17 28 29.74 1007 10 16.09344 0 0
3:15 pm 15:15 Mostly Cloudy 57 14 32 0 39 39 WNW 16 26 29.74 1007 10 16.09344 0 0
3:35 pm 15:35 Cloudy 61 16 32 0 34 34 NW 16 26 29.71 1006 10 16.09344 0 0
3:55 pm 15:55 Cloudy 59 15 32 0 36 36 NW 16 26 29.71 1006 10 16.09344 0 0
4:15 pm 16:15 Cloudy 59 15 32 0 36 36 WNW 15 24 29.71 1006 10 16.09344 0 0
4:35 pm 16:35 Mostly Cloudy 59 15 30 -1 34 34 NW 22 35 29.71 1006 10 16.09344 0 0
4:55 pm 16:55 Partly Cloudy 59 15 30 -1 34 34 NW 21 33 29.74 1007 10 16.09344 0 0
5:15 pm 17:15 Partly Cloudy 59 15 28 -2 31 31 NW 18 30 29.71 1006 10 16.09344 0 0
5:35 pm 17:35 Partly Cloudy 57 14 28 -2 33 33 NW 17 28 29.71 1006 10 16.09344 0 0
5:55 pm 17:55 Sunny 57 14 28 -2 33 33 NW 16 26 29.71 1006 10 16.09344 0 0
6:15 pm 18:15 Sunny 55 13 28 -2 36 36 NW 16 26 29.77 1008 10 16.09344 0 0
6:35 pm 18:35 Sunny 54 12 27 -3 35 35 NW 12 19 29.77 1008 10 16.09344 0 0
6:55 pm 18:55 Clear 52 11 27 -3 38 38 NW 9 15 29.77 1008 10 16.09344 0 0
7:15 pm 19:15 Clear 50 10 28 -2 43 43 NNW 8 13 29.8 1009 10 16.09344 0 0
7:35 pm 19:35 Clear 45 7 30 -1 57 57 N 3 6 29.83 1010 10 16.09344 0 0
7:55 pm 19:55 Clear 43 6 30 -1 61 61 N 6 9 29.83 1010 10 16.09344 0 0
8:15 pm 20:15 Clear 41 5 30 -1 66 66 N 7 11 29.83 1010 10 16.09344 0 0
8:35 pm 20:35 Clear 39 4 30 -1 70 70 N 7 11 29.83 1010 10 16.09344 0 0
8:55 pm 20:55 Clear 39 4 30 -1 70 70 N 12 19 29.88 1012 10 16.09344 0 0
9:15 pm 21:15 Clear 39 4 28 -2 65 65 N 10 17 29.88 1012 10 16.09344 0 0
9:35 pm 21:35 Clear 37 3 27 -3 65 65 N 9 15 29.88 1012 10 16.09344 0 0
9:55 pm 21:55 Clear 36 2 25 -4 65 65 N 6 9 29.91 1013 10 16.09344 0 0
10:15 pm 22:15 Clear 36 2 23 -5 60 60 N 6 9 29.91 1013 10 16.09344 0 0
10:35 pm 22:35 Clear 36 2 23 -5 60 60 Calm 29.94 1014 10 16.09344 0 0
10:55 pm 22:55 Clear 34 1 23 -5 65 65 Calm 29.97 1015 10 16.09344 0 0
11:15 pm 23:15 Clear 34 1 21 -6 60 60 NW 5 7 29.97 1015 10 16.09344 0 0
11:35 pm 23:35 Clear 36 2 21 -6 56 56 NNW 7 11 29.94 1014 10 16.09344 0 0
11:55 pm 23:55 Clear 34 1 21 -6 60 60 NW 6 9 30 1016 10 16.09344 0 0

Powered by AerisWeather